Time,TemperatureF,DewpointF,PressureIn,WindDirection,WindDirectionDegrees,WindSpeedMPH,WindSpeedGustMPH,Humidity,HourlyPrecipIn,Conditions,Clouds,dailyrainin,SoftwareType,DateUTC
2013-01-14 00:02:00,47.0,-99.9,-100.00,West,279,4.0,7.0,-999,-99.99,,,-99.99,,2013-01-14 08:02:00,
2013-01-14 00:10:00,47.0,-99.9,-100.00,SW,234,0.0,2.0,-999,-99.99,,,-99.99,,2013-01-14 08:10:00,
2013-01-14 00:12:00,47.0,-99.9,-100.00,West,279,4.0,7.0,-999,-99.99,,,-99.99,,2013-01-14 08:12:00,
2013-01-14 00:22:00,48.0,-99.9,-100.00,West,262,6.0,10.0,-999,-99.99,,,-99.99,,2013-01-14 08:22:00,
2013-01-14 00:33:00,47.0,-99.9,-100.00,WNW,301,2.0,8.0,-999,-99.99,,,-99.99,,2013-01-14 08:33:00,
2013-01-14 00:43:00,47.0,-99.9,-100.00,WNW,301,2.0,8.0,-999,-99.99,,,-99.99,,2013-01-14 08:43:00,
2013-01-14 00:53:00,47.0,-99.9,-100.00,SW,234,0.0,2.0,-999,-99.99,,,-99.99,,2013-01-14 08:53:00,
2013-01-14 01:03:00,47.0,-99.9,-100.00,SW,234,0.0,2.0,-999,-99.99,,,-99.99,,2013-01-14 09:03:00,
2013-01-14 01:23:00,48.0,-99.9,-100.00,South,169,1.0,8.0,-999,-99.99,,,-99.99,,2013-01-14 09:23:00,
2013-01-14 01:34:00,48.0,-99.9,-100.00,South,169,1.0,8.0,-999,-99.99,,,-99.99,,2013-01-14 09:34:00,
2013-01-14 04:23:00,44.0,-99.9,-100.00,East,91,6.0,6.0,-999,-99.99,,,-99.99,,2013-01-14 12:23:00,
2013-01-14 04:33:00,44.0,-99.9,-100.00,NNE,22,1.0,2.0,-999,-99.99,,,-99.99,,2013-01-14 12:33:00,
2013-01-14 04:43:00,44.0,-99.9,-100.00,NNE,22,1.0,2.0,-999,-99.99,,,-99.99,,2013-01-14 12:43:00,
2013-01-14 07:34:00,41.0,-99.9,-100.00,SW,234,0.0,2.0,-999,-99.99,,,-99.99,,2013-01-14 15:34:00,
2013-01-14 07:43:00,41.0,-99.9,-100.00,SW,234,0.0,2.0,-999,-99.99,,,-99.99,,2013-01-14 15:43:00,
2013-01-14 10:33:00,47.0,-99.9,-100.00,NNW,347,5.0,8.0,-999,-99.99,,,-99.99,,2013-01-14 18:33:00,
2013-01-14 10:43:00,47.0,-99.9,-100.00,NNW,347,5.0,8.0,-999,-99.99,,,-99.99,,2013-01-14 18:43:00,
2013-01-14 12:34:00,53.0,-99.9,-100.00,ESE,123,3.0,8.0,-999,-99.99,,,-99.99,,2013-01-14 20:34:00,
2013-01-14 12:43:00,53.0,-99.9,-100.00,ESE,123,3.0,8.0,-999,-99.99,,,-99.99,,2013-01-14 20:43:00,
2013-01-14 12:53:00,52.0,-99.9,-100.00,North,9,4.0,5.0,-999,-99.99,,,-99.99,,2013-01-14 20:53:00,
2013-01-14 13:03:00,53.0,-99.9,-100.00,North,350,3.0,3.0,-999,-99.99,,,-99.99,,2013-01-14 21:03:00,
2013-01-14 13:13:00,53.0,-99.9,-100.00,North,350,3.0,3.0,-999,-99.99,,,-99.99,,2013-01-14 21:13:00,
2013-01-14 13:23:00,53.0,-99.9,-100.00,North,350,3.0,3.0,-999,-99.99,,,-99.99,,2013-01-14 21:23:00,
2013-01-14 13:54:00,55.0,-99.9,-100.00,SSW,211,0.0,3.0,-999,-99.99,,,-99.99,,2013-01-14 21:54:00,
2013-01-14 14:03:00,54.0,-99.9,-100.00,South,186,2.0,4.0,-999,-99.99,,,-99.99,,2013-01-14 22:03:00,
2013-01-14 14:13:00,54.0,-99.9,-100.00,South,186,2.0,4.0,-999,-99.99,,,-99.99,,2013-01-14 22:13:00,
2013-01-14 14:30:00,55.0,-99.9,-100.00,NNW,346,3.0,5.0,-999,-99.99,,,-99.99,,2013-01-14 22:30:00,
2013-01-14 15:23:00,55.0,-99.9,-100.00,NNW,346,3.0,5.0,-999,-99.99,,,-99.99,,2013-01-14 23:23:00,
2013-01-14 18:03:00,53.0,-99.9,-100.00,West,263,10.0,19.0,-999,-99.99,,,-99.99,,2013-01-15 02:03:00,
2013-01-14 18:10:00,51.0,-99.9,-100.00,ENE,57,10.0,10.0,-999,-99.99,,,-99.99,,2013-01-15 02:10:00,
2013-01-14 18:12:00,53.0,-99.9,-100.00,West,263,10.0,19.0,-999,-99.99,,,-99.99,,2013-01-15 02:12:00,
2013-01-14 18:23:00,53.0,-99.9,-100.00,West,263,10.0,19.0,-999,-99.99,,,-99.99,,2013-01-15 02:23:00,
2013-01-14 18:53:00,51.0,-99.9,-100.00,ENE,57,10.0,10.0,-999,-99.99,,,-99.99,,2013-01-15 02:53:00,
2013-01-14 19:03:00,51.0,-99.9,-100.00,ENE,57,10.0,10.0,-999,-99.99,,,-99.99,,2013-01-15 03:03:00,
2013-01-14 19:22:00,52.0,-99.9,-100.00,East,97,5.0,7.0,-999,-99.99,,,-99.99,,2013-01-15 03:22:00,
2013-01-14 19:33:00,51.0,-99.9,-100.00,ESE,114,3.0,4.0,-999,-99.99,,,-99.99,,2013-01-15 03:33:00,
2013-01-14 19:43:00,51.0,-99.9,-100.00,ESE,114,3.0,4.0,-999,-99.99,,,-99.99,,2013-01-15 03:43:00,
2013-01-14 19:53:00,51.0,-99.9,-100.00,North,5,5.0,7.0,-999,-99.99,,,-99.99,,2013-01-15 03:53:00,
2013-01-14 20:03:00,51.0,-99.9,-100.00,North,5,5.0,7.0,-999,-99.99,,,-99.99,,2013-01-15 04:03:00,
2013-01-14 20:30:00,51.0,-99.9,-100.00,East,97,0.0,5.0,-999,-99.99,,,-99.99,,2013-01-15 04:30:00,
2013-01-14 21:04:00,50.0,-99.9,-100.00,SE,128,2.0,5.0,-999,-99.99,,,-99.99,,2013-01-15 05:04:00,
2013-01-14 21:10:00,51.0,-99.9,-100.00,ENE,68,2.0,9.0,-999,-99.99,,,-99.99,,2013-01-15 05:10:00,
2013-01-14 21:12:00,50.0,-99.9,-100.00,SE,128,2.0,5.0,-999,-99.99,,,-99.99,,2013-01-15 05:12:00,
2013-01-14 21:23:00,51.0,-99.9,-100.00,East,97,0.0,5.0,-999,-99.99,,,-99.99,,2013-01-15 05:23:00,
2013-01-14 21:53:00,51.0,-99.9,-100.00,ENE,68,2.0,9.0,-999,-99.99,,,-99.99,,2013-01-15 05:53:00,
2013-01-14 22:03:00,51.0,-99.9,-100.00,ENE,68,2.0,9.0,-999,-99.99,,,-99.99,,2013-01-15 06:03:00,
2013-01-14 22:22:00,51.0,-99.9,-100.00,North,9,3.0,7.0,-999,-99.99,,,-99.99,,2013-01-15 06:22:00,
2013-01-14 22:33:00,49.0,-99.9,-100.00,SE,125,2.0,8.0,-999,-99.99,,,-99.99,,2013-01-15 06:33:00,
2013-01-14 22:43:00,49.0,-99.9,-100.00,SE,125,2.0,8.0,-999,-99.99,,,-99.99,,2013-01-15 06:43:00,
2013-01-14 22:53:00,51.0,-99.9,-100.00,NE,54,5.0,10.0,-999,-99.99,,,-99.99,,2013-01-15 06:53:00,
2013-01-14 23:02:00,51.0,-99.9,-100.00,NE,54,5.0,10.0,-999,-99.99,,,-99.99,,2013-01-15 07:02:00,